STARLINK-36099

Last updated on Mon Dec 15 2025 00:02:11 GMT+0000 (Coordinated Universal Time)

1 66797U 25278G 25348.25003472 -.01255676 00000+0 -64377-2 0 9996 2 66797 42.9972 242.8037 0001925 273.9550 113.2769 15.82987887 3267
UTC large
Height (km)
Speed (km/s)
/
Latitude / Longitude
Inclination (degrees)
Orbital Period (minutes)
Azimuth
Elevation
Range (km)
Doppler Factor

Next 0 passes for location: London (51.5072 / 0.1276)

Sorry there are no passes over London.